538  
ASUS41 KOKX 190708  
RWROKX  
 
REGIONAL WEATHER ROUNDUP  
NATIONAL WEATHER SERVICE NEW YORK NY  
300 AM EDT THU OCT 19 2017  
 
NOTE: "FAIR" INDICATES FEW OR NO CLOUDS BELOW 12,000 FEET WITH NO  
SIGNIFICANT WEATHER AND/OR S TO VISIBILITY
.  
 
NYZ071-072-176-178-NJZ106-104-190800-  
NEW YORK CITY METRO AREA  
 
CITY SKY/WX TMP DP RH WIND PRES REMARKS
 
CENTRAL PARK CLEAR 60 45 57 W6 30.29S  
BRONX BOT GARD N/A 59 43 55 W7 30.26F  
LAGUARDIA APRT CLEAR 61 45 55 SW6 30.25F  
KENNEDY INTL CLEAR 54 52 93 SW7 30.28S  
BREEZY POINT N/A 57 N/A N/A W7 N/A  
NEWARK/LIBERTY CLEAR 54 46 74 SW7 30.27S  
TETERBORO CLEAR 51 46 83 CALM 30.25F  

 
 
NYZ177-179-078>081-190800-  
LONG ISLAND NEW YORK  
 
CITY SKY/WX TMP DP RH WIND PRES REMARKS
 
JONES BEACH N/A 59 N/A N/A SW5 N/A  
MATINECOCK PT N/A 59 N/A N/A SW8 N/A  
FARMINGDALE CLEAR 52 49 89 CALM 30.27F  
MACARTHUR/ISP CLEAR 53 51 93 SW3 30.27S  
SHIRLEY CLEAR 54 51 90 SW5 30.27F  
MT SINAI HARB N/A N/A N/A N/A SW6 N/A  
WESTHAMPTON FOG 41 39 93 CALM 30.29S VSB 1/4  
EAST HAMPTON FAIR 43 42 96 CALM 30.26F  
MONTAUK N/A 60 58 92 CALM 30.28S  

 
 
NYZ052-065-067-190800-  
HUDSON VALLEY  
 
CITY SKY/WX TMP DP RH WIND PRES REMARKS
 
WHITE PLAINS CLEAR 50 46 86 CALM 30.25S  
LARCHMONT HARB N/A 59 N/A N/A CALM N/A  
CROTON ON HUDS N/A 52 N/A N/A CALM N/A  
NEWBURGH CLEAR 48 45 87 CALM 30.25F  
MONTGOMERY CLEAR 44 43 96 CALM 30.24F  
POUGHKEEPSIE CLEAR 44 41 89 CALM 30.24S  
ALBANY CLEAR 48 44 86 CALM 30.22S  

 
 
NJZ001-105-106-008-010-013-015-019>022-104-190800-  
NEW JERSEY  
 
CITY SKY/WX TMP DP RH WIND PRES REMARKS
 
NEWARK/LIBERTY CLEAR 54 46 74 SW7 30.27S  
TETERBORO CLEAR 51 46 83 CALM 30.25F  
CALDWELL CLEAR 47 47 100 CALM 30.27F  
SOMERVILLE CLEAR 42 41 96 CALM 30.26F  
LINDEN FAIR 54 47 78 W3 30.27S  
PERTH AMBOY N/A 52 N/A N/A W3 N/A  
SUSSEX CLEAR 42 41 96 CALM 30.26S  
ANDOVER N/A 43 42 97 S3 30.26F  
TRENTON CLEAR 49 46 90 CALM 30.27F  
MILLVILLE CLEAR 44 43 96 CALM 30.29F  
ATLANTIC CITY CLEAR 46 44 93 CALM 30.29F  
WRIGHTSTOWN CLEAR 47 44 91 CALM 30.26F  
TOMS RIVER N/A 43 41 93 CALM 30.29F  
BELMAR CLEAR 52 46 80 SW5 30.29F  

 
 
PAZ047>061-062-071-190800-  
EASTERN PENNSYLVANIA  
 
CITY SKY/WX TMP DP RH WIND PRES REMARKS
 
PHILADELPHIA PTCLDY 53 47 79 SW6 30.29F  
ALLENTOWN CLEAR 44 41 89 CALM 30.27S  
SCRANTON CLEAR 45 43 93 CALM 30.24F  

 
 
CTZ002-004>006-009-010-012-RIZ004-006-007-MAZ004-011-015-190800-  
SOUTHERN NEW ENGLAND  
IN CT  
 
CITY SKY/WX TMP DP RH WIND PRES REMARKS
 
BRADLEY INTL CLEAR 45 43 93 CALM 30.24F  
HARTFORD FOG 47 45 93 CALM 30.25S VSB 1/2  
DANBURY CLEAR 43 41 93 CALM 30.27S  
WTRBURY/OXFORD CLEAR 47 46 97 CALM 30.26F  
NORWALK HARBOR N/A 55 N/A N/A W5 N/A  
BRIDGEPORT CLEAR 51 49 92 CALM 30.26S  
MERIDEN PTCLDY 42 41 96 CALM 30.25F FOG  
NEW HAVEN CLEAR 46 44 93 CALM 30.26F  
CHESTER FAIR 54 52 94 SW5 30.26F  
GROTON CLEAR 48 46 93 CALM 30.26S  
WILIMANTIC CLEAR 42 41 96 CALM 30.27F  
 
IN RI  
 
CITY SKY/WX TMP DP RH WIND PRES REMARKS
 
PROVIDENCE CLEAR 48 48 100 CALM 30.27F  
BLOCK ISLAND CLEAR 57 56 96 SW7 30.27F  
WESTERLY CLEAR 45 43 93 CALM 30.27F  
IN MA  
 
CITY SKY/WX TMP DP RH WIND PRES REMARKS
 
BOSTON CLEAR 53 47 79 S6 30.24F  
WORCESTER CLEAR 49 44 83 SW10 30.24F  
WESTFIELD CLEAR 41 40 96 CALM 30.24F  
PROVINCETOWN CLEAR 56 55 97 S7 30.26F  
NANTUCKET CLEAR 56 56 100 SW7 30.27F  

 
 
ANZ330-335-338-340-345-350-353-355-190800-  
COASTAL MARINE OBSERVATIONS  
 
 
STATION/POSITION TIME SKY/WX TEMP WIND PRES VSBY WAVE
 
AIR SEA DIR/SP/G HT/PER  
(UTC) (F) (DEG/KT/KT) (MB) (MI) (FT/S)  
NY HARB ENTRANCE 0550 62 65 230/ 12/ 16 1024.6 3/10  
20 S FIRE ISLAND 0650 64 64 240/ 12/ 16 1025.3 3/ 9  
GREAT SOUTH BAY 0630 61 62 250/ 8/ 10 N/A  
15 E BARNEGAT LI 0630 66 N/A 3/11  
HUDSON CANYON 0550 64 65 230/ 10/ 12 1025.5 3/10  
KINGS POINT 0648 66 190/ 4/ 5 1025.4  
EXECUTION ROCKS 0630 63 210/ 8/ 10 N/A  
WESTERN LI SOUND 0549 63 220/ 10/ 14 N/A 1  
CENTRAL LI SOUND 0615 65 230/ 12/ 14 N/A 2  
EASTERN LI SOUND NOT AVBL  
ROBBINS REEF 0642 260/ 11/ 12 1025.4  

 
 
>>>>>>>>>>>>>>>>>>>>>>>>>>>> KEY <<<<<<<<<<<<<<<<<<<<<<<<<<<  
> <  
> SKY/WX - SKY CONDITION/PRESENT WEATHER <  
> TMP - TEMPERATURE IN FAHRENHEIT <  
> DP - DEW POINT IN FAHRENHEIT <  
> RH - RELATIVE HUMIDITY IN PERCENT <  
> WIND - DIRECTION (FROM) AND SPEED IN MPH <  
> PRES - MEAN SEA LEVEL PRESSURE (INCHES OF HG) <  
> WCI - WIND CHILL INDEX <  
> VSB - VISIBILITY IN MILES <  
> HX - HEAT INDEX <  
> TC - TEMPERATURE IN CELSIUS <  
> VRB - VARIABLE WIND DIRECTION <  
> <  
>>>>>>>>>>>>>>>>>>>>>>>>>>>> KEY <<<<<<<<<<<<<<<<<<<<<<<<<<<  
 
 
CLICK HERE TO GO TO PREVIOUS BULLETINS.

The Nexlab NY Page
The Nexlab NJ Page
The Nexlab CT Page Main Text Page